Weather in Shorchekasy

Russia / Chuvash Republic     55°58′34″N   47°28′22″E
temp.,
°C
wind,
m/s
gust,
m/s
humid.,
%
clouds,
%
prec.,
mm/h
press.,
hPa
HPBL,
m
11 may, tue
tue1100:00+11n5995100 0.3 1024301
03:00+9nne5998100 0.3 1024231
06:00+11nne5995100 0.0 1025244
09:00+16ne5681100 0.0 1026486
12:00+21ene4460100 0.0 1026921
15:00+23ene4553100 0.0 10261416
18:00+20ne3569100 0.1 1026102
21:00+16ene3886100 0.1 1027153
12 may, wed
wed1200:00+14ne3692100 0.3 1027109
03:00+13ne34936 0.3 102777
06:00+15ene258439 0.0 1027147
09:00+20ese57558 0.0 1028535
12:00+23ese46505 0.0 10271307
15:00+23se574914 0.0 10272357
18:00+19sw2468100 0.0 1027151
21:00+16sse1167100 0.0 102711
13 may, thu
thu1300:00+15se116197 0.0 102711
03:00+15se116067 0.0 102711
06:00+16e246887 0.0 1026126
09:00+18ese377227 0.0 1026361
12:00+22se685147 0.0 10251250
15:00+21s4960100 0.0 1024453
18:00+18ese41168100 0.0 1023316
21:00+17ese51268100 0.0 1022238
14 may, fri
fri1400:00+15se3979100 0.1 1022174
03:00+14se378187 0.4 1022146
06:00+16se397663 0.0 1022308
09:00+20sse465842 0.0 1021548
12:00+23ssw4655100 0.0 10211002
15:00+25s575195 0.0 10211650
18:00+23sse246725 0.1 102088
21:00+18s3671100 0.1 101979
15 may, sat
sat1500:00+16sse35745 0.0 101972
03:00+15s35725 0.0 101978
06:00+17sse310705 0.0 1019236
09:00+22s610525 0.0 1018456
12:00+26s710435 0.0 10181021
15:00+26s69445 0.0 10171143
18:00+23s513545 0.0 1016354
21:00+18s4136545 0.0 1016223